Regional Weather Roundup
Issued by NWS Newport/Morehead, NC

Current Version | Previous Version | Graphics & Text | Print | Product List | Glossary Off
Versions: 1 2 3 4 5 6 7 8 9 10 11 12 13 14 15 16 17 18 19 20 21 22 23 24 25 26 27 28 29 30 31 32 33 34 35 36 37 38 39 40 41 42 43 44 45 46 47 48 49 50

000
ASUS42 KMHX 280613
RWRMHX
WEATHER ROUNDUP FOR EASTERN NORTH CAROLINA
NATIONAL WEATHER SERVICE NEWPORT/MOREHEAD CITY NC
200 AM EDT THU APR 28 2016

NOTE: "FAIR" INDICATES FEW OR NO CLOUDS BELOW 12,000 FEET
WITH NO SIGNIFICANT WEATHER AND/OR OBSTRUCTIONS TO VISIBILITY

NCZ015>017-031-032-045>047-102-103-280700-
NORTH COAST

CITY           SKY/WX    TMP DP  RH WIND       PRES   REMARKS
EDENTON        LGT RAIN  65  65 100 CALM      29.90F
ELIZABETH CITY LGT RAIN  59  58  96 CALM      29.92R
KITTY HAWK     LGT RAIN  57  56  95 CALM      29.89S
MANTEO         NOT AVBL

$$

NCZ045>047-081-094-103-104-280700-
CENTRAL COAST

CITY           SKY/WX    TMP DP  RH WIND       PRES   REMARKS
FRISCO         MOCLDY    68  65  90 W3        29.92F
SWANQUARTER    NOT AVBL

$$

NCZ095-097-098-100-101-280700-
SOUTHERN COAST

CITY           SKY/WX    TMP DP  RH WIND       PRES   REMARKS
BEAUFORT       CLEAR     68  66  93 SW10      29.91F
CEDAR ISLAND   NOT AVBL
JACKSONVILLE   MOCLDY    69  63  81 SW7       29.90S
PINEY ISLAND   CLEAR    N/A N/A N/A SW6       29.90F
WILMINGTON     CLOUDY    70  65  84 SW8       29.90F


$$

NCZ011>013-027>030-043-044-078>080-089-090>093-098-280700-
COASTAL PLAIN

CITY           SKY/WX    TMP DP  RH WIND       PRES   REMARKS
AHOSKIE        LGT RAIN  64  63  97 SE3       29.90S
CLINTON        CLOUDY    68  60  75 S5        29.88F
ELIZABETHTOWN  CLEAR     68  59  74 S3        29.89F
GOLDSBORO      CLOUDY    70  61  73 SW7       29.85F
GREENVILLE     CLOUDY    66  64  94 NE8       29.92R
HAVELOCK       NOT AVBL
KENANSVILLE    CLOUDY    68  57  68 CALM      29.90S
KINSTON        PTCLDY    70  57  64 S7        29.89S
NEW BERN       PTCLDY    65  59  81 CALM      29.91S
RICHLANDS      PTCLDY    67  62  84 S9        29.90S
ROCKY MOUNT    CLOUDY    66  65  96 N9        29.90R
WASHINGTON     CLOUDY    65  60  85 SE6       29.89S
WHITEVILLE     CLOUDY    67  63  85 SW3       29.90F

$$

AMZ130-135-150-152-154-156-158-170-250-252-270-ANZ085-086-088-633-658-670-280700-
MARINE OBSERVATIONS

STATION/POSITION TIME  TEMP    WIND        PRES    WAVE   SWELL
                       AIR SEA DIR/SP/G            HT/PER HT/PER
                 (UTC) (F)     (DEG/KT/KT) (MB)    (FT/S) (FT/S)
CHESAPEAKE LIGHT 0600   54      70/  6/  7 1013.2
64 E VA BEACH    0550   54 53   30/  6/  8 1012.0    4/ 6   3/ 6
DUCK             0500   55 63   60/  5/  5 1012.6
2 E DUCK         0511      57                N/A     3/ 7
OREGON INLET     0500   57 71   50/  2/  5 1013.0
13E OREGON INLT  0600      57                N/A     5/ 7   5/ 7
HATTERAS CG      0500   69 68  270/  8/ 12 1013.4
DIAMOND BUOY     0550   72 71  250/ 12/ 14 1013.1    4/ 6   2/12
CAPE LOOKOUT     0600   68     220/  7/  9 1012.6
BEAUFORT LAB     0500   68 67  220/  5/  7 1012.2
30 SE NEW RVR IN 0525      67                N/A     4/ 5
27 SE WRIGHTSVLE 0508   71 69  220/ 12/ 14 1015.8
5 SE WRIGHTSVLE  0508   69 66  230/ 12/ 16 1013.6
225 S CAPE HAT   0550   70 70  180/ 12/ 14 1015.9    2/ 9   2/ 9
41 SE CHARLESTON 0550   74 73  190/ 16/ 17 1012.8    3/ 5   2/ 7

$$




USA.gov is the U.S. government's official web portal to all federal, state and local government web resources and services.